Regional Weather Roundup
Issued by NWS

Home | Current Version | Previous Version | Graphics & Text | Print | Product List | Glossary Off
Versions: 1 2 3 4 5 6 7 8 9 10 11 12 13 14 15 16 17 18 19 20 21 22 23 24 25 26 27 28 29 30 31 32 33 34 35 36 37 38 39 40 41 42 43 44 45 46 47 48 49 50

506
ASUS44 KFWD 052015
RWRTX
NORTH TEXAS HOURLY WEATHER ROUNDUP
NATIONAL WEATHER SERVICE FORT WORTH TX
300 PM CDT THU MAY 05 2016

NOTE: "FAIR" INDICATES FEW OR NO CLOUDS BELOW 12,000 FEET WITH NO
SIGNIFICANT WEATHER AND/OR OBSTRUCTIONS TO VISIBILITY.

TXZ118-119-052100-
DALLAS/FORT WORTH METROPLEX

CITY           SKY/WX    TMP DP  RH WIND       PRES   REMARKS
DFW AIRPORT    MOSUNNY   81  44  27 NW9       30.05F
DALLAS LOVE    MOSUNNY   81  42  25 NW9       30.05F
FTW MEACHAM    SUNNY     82  47  29 N12       30.05F
DAL-EXECUTIVE  SUNNY     80  44  27 NW12      30.04F
FTW-ALLIANCE   MOSUNNY   80  46  30 N6        30.05F
FTW-NAS-JRB    SUNNY     81  48  31 VRB5      30.05F
FTW-SPINKS     SUNNY     81  46  30 N6        30.07F
ARLINGTON      SUNNY     83  43  24 N8        30.04F
GRAND PRAIRIE  SUNNY     79  39  24 NW12      30.06F
ADDISON        SUNNY    N/A N/A N/A N10       30.06F
MESQUITE       SUNNY     79  43  27 N3        30.05F
LANCASTER      SUNNY     80  37  21 N8        30.05F
$$

TXZ091>094-102>105-117-120-121-131>134-052100-
NORTH CENTRAL TEXAS

CITY           SKY/WX    TMP DP  RH WIND       PRES   REMARKS
SHRMAN/DENISON SUNNY     74  40  29 NW3       30.07F
GAINESVILLE    SUNNY     76  46  34 CALM      30.08F
DECATUR        SUNNY     79  41  25 CALM      30.07F
DENTON         SUNNY     79  47  32 N8        30.06F
MCKINNEY       SUNNY     78  42  27 VRB3      30.05F
ROCKWALL       SUNNY     77  46  33 N8        30.04F
TERRELL        SUNNY     79  43  27 MISG      30.05F
WAXAHACHIE     SUNNY     80  44  28 NW5       30.06F
GRANBURY       SUNNY     83  48  30 N6        30.06F
$$

TXZ083>090-098>101-113>116-127>130-139>142-154-155-052100-
WESTERN NORTH TEXAS

CITY           SKY/WX    TMP DP  RH WIND       PRES   REMARKS
WICHITA FALLS  SUNNY     82  48  30 E8        30.06F
ABILENE        NOT AVBL
ABILENE-DYESS  MOSUNNY   83  53  34 VRB3      30.06F
BRECKENRIDGE   SUNNY     84  46  26 SE5       30.06F HAZE
GRAHAM         SUNNY     83  50  32 W5        30.05F
MINERAL WELLS  SUNNY     82  47  29 VRB3      30.04F
STEPHENVILLE   SUNNY     82  48  30 E6        30.10F
COMANCHE       SUNNY     81  55  41 NE6       30.08F
BROWNWOOD      SUNNY     82  48  30 SW5       30.06F
$$

TXZ143>147-156>162-174-175-052100-
CENTRAL TEXAS

CITY           SKY/WX    TMP DP  RH WIND       PRES   REMARKS
WACO           SUNNY     82  47  29 CALM      30.05F
WACO-TSTC      SUNNY     82  46  28 N7        30.04F
WACO-MCGREGOR  SUNNY     83  52  34 NW5       30.05F
CORSICANA      SUNNY     80  45  28 MISG      30.05F
MEXIA          SUNNY     78  46  32 NW10      30.04F
HEARNE         SUNNY     82  50  33 N5        30.04F
TEMPLE         SUNNY     81  53  37 N7        30.05F
KILLEEN        MOSUNNY   82  53  35 VRB2      30.04F
KILLEEN-SKYLRK SUNNY     82  53  36 N10       30.04F
FORT HOOD      SUNNY     82  52  35 VRB6      30.03F
GATESVILLE     SUNNY     82  48  30 MISG      30.07F
HAMILTON       SUNNY     81  52  36 NE5       30.07F
LAMPASAS       SUNNY     81  54  39 CALM      30.05F
$$

TXZ095>097-106>112-122>126-135>138-148>153-164>167-052100-
EAST TEXAS

CITY           SKY/WX    TMP DP  RH WIND       PRES   REMARKS
PARIS          SUNNY     77  45  31 N8        30.05S
SULPHUR SPRNGS SUNNY     75  48  38 N7        30.07S
GILMER         SUNNY     75  45  33 NW8       30.03F
MINEOLA        SUNNY     77  45  31 NW9       30.05F
TYLER          SUNNY     79  42  26 N10G18    30.03F
LONGVIEW       SUNNY     78  44  29 NW10      30.01F
PALESTINE      SUNNY     79  44  28 N3        30.04F
JACKSONVILLE   SUNNY     77  43  29 N7        30.05F
NACOGDOCHES    SUNNY     79  46  31 NW9       30.01F
LUFKIN         SUNNY     79  45  29 NW12      30.01F
$$

SUPPLEMENTAL OBSERVATIONS (CENTRAL)

CITY           SKY/WX    TMP DP  RH WIND       PRES   REMARKS
LAKE TEXOMA      N/A     75  45  33 NW3         N/A
CADDO GRASSLND   N/A     79  45  29 NW6         N/A
PAT MAYSE LAKE   N/A     79  41  25 NW9         N/A
GREENVILLE       N/A     79  46  31 N9          N/A
CEDAR HILL       N/A     82  43  24 N6          N/A
ATHENS           N/A     82  48  30 N2          N/A
MCGREGOR         N/A     84  52  32 N3          N/A
TEMPLE           N/A     86  50  28 NW2G13      N/A
$$

SUPPLEMENTAL OBSERVATIONS (WEST)

CITY           SKY/WX    TMP DP  RH WIND       PRES   REMARKS
POSSUM KINGDOM   N/A     84  48  28 E6          N/A
GRANBURY         N/A     84  48  28 N7          N/A
HAMBY            N/A     84  52  32 NE5         N/A
IVIE RESERVOIR   N/A     88  43  20 NW5         N/A
COLORADO BEND    N/A     84  48  28 NE5         N/A
$$

SUPPLEMENTAL OBSERVATIONS (EAST)

CITY           SKY/WX    TMP DP  RH WIND       PRES   REMARKS
CLARKSVILLE      N/A     79  45  29 N7G15       N/A
TEXARKANA        N/A     77  43  29 N8          N/A
LINDEN           N/A     79  39  24 NW7         N/A
CADDO LAKE       N/A     81  43  26 NW5         N/A
GILMER           N/A     79  45  29 N7          N/A
HENDERSON        N/A     79  45  29 N8G17       N/A
LUFKIN           N/A     79  43  27 MISG        N/A
N SABINE NF      N/A     81  45  28 MISG        N/A
S SABINE NF      N/A     79  46  31 NE5         N/A
$$

SUPPLEMENTAL OBSERVATIONS ARE A COLLECTION OF AUTOMATED INSTRUMENTS
THAT ARE MAINTAINED BY A VARIETY OF FEDERAL AND STATE AGENCIES.
CERTAIN ELEMENTS...SUCH AS HUMIDITY VALUES AND SUSTAINED WIND
SPEEDS...MAY BE APPROXIMATED.





USA.gov is the U.S. government's official web portal to all federal, state and local government web resources and services.